Content
SEND FEEDBACK

Daily
Averages
Monthly
Summary
United States of America

WAIELI, HAWAII


Home > North America > United States > Hawaii
Elevation: 1250 feet     Latitude: 22 02N     Longitude: 159 44W

WEATHER
 
SELECT A DAY
Number of Records: 77,268;   Date Range: 1/3/95 - 12/18/14
 
SHARE

PRINT THIS DATA

[ ← Previous Day ]
WEATHER ALMANAC - JANUARY 31, 2013
[ Next Day → ]
[ °C ]   °F
Weather ElementAverageHighLow
Temperature72.2 °F81 °F (1:56 pm)64 °F (5:56 am)
Dewpoint60.5 °F66 °F (6:56 pm)55.9 °F (6:56 am)
Humidity67.7 %81 % (4:56 am)50 % (11:56 am)
Barometer30.08 in30.12 in (8:56 am)30.04 in (2:56 pm)
Wind Speed5.6 mph15 mph (12:56 pm)
Wind Gust17.3 mph (2:56 pm)
Weather ElementAverage
Visibility10 mi
Wind DirectionSE (134.8 °)

Weather ElementTotal
Precipitation---
Cooling Degree Days7.5 (Base 65)
Growing Degree Days22.5 (Base 50)
Averaged from 23 records on January 31, 2013
WEATHER CONDITIONS BREAKOUT
WIND DIRECTION BREAKOUT
WEATHER BY HOUR - JANUARY 31, 2013
[ °C ]   °F
Local TimeTemperatureDewpointHumidityBarometerVisibilityWind DirectionWind SpeedGust SpeedPrecipitationEventsConditions
1:56 AM64.9 °F57.9 °F78 %30.06 in10.0 miEast (80°)4.6 mphClear
2:56 AM64.9 °F57.9 °F78 %30.06 in10.0 miEast (80°)5.8 mphClear
3:56 AM66.0 °F57.9 °F75 %30.06 in10.0 miEast (90°)5.8 mphClear
4:56 AM66.0 °F60.1 °F81 %30.06 in10.0 miENE (70°)5.8 mphClear
5:56 AM64.0 °F57.9 °F80 %30.06 in10.0 miEast (80°)4.6 mphClear
6:56 AM64.9 °F55.9 °F73 %30.08 in10.0 miENE (60°)4.6 mphClear
7:56 AM66.0 °F60.1 °F81 %30.10 in10.0 miEast (80°)3.5 mphClear
8:56 AM73.0 °F62.1 °F68 %30.12 in10.0 miCalmClear
9:56 AM77.0 °F57.9 °F52 %30.12 in10.0 miCalmPartly Cloudy
10:56 AM77.0 °F61.0 °F58 %30.12 in10.0 miNNW (330°)6.9 mphPartly Cloudy
11:56 AM80.1 °F60.1 °F50 %30.10 in10.0 miNorth (360°)9.2 mphClear
12:56 PM80.1 °F62.1 °F54 %30.08 in10.0 miNorth (360°)15.0 mphClear
1:56 PM81.0 °F61.0 °F50 %30.06 in10.0 miNorth (10°)12.7 mphClear
2:56 PM81.0 °F62.1 °F52 %30.04 in10.0 miNorth (350°)11.5 mph17.3 mphClear
3:56 PM79.0 °F61.0 °F54 %30.04 in10.0 miNW (320°)9.2 mphPartly Cloudy
4:56 PM79.0 °F63.0 °F58 %30.04 in10.0 miNorth (360°)9.2 mphScattered Clouds
5:56 PM77.0 °F63.0 °F62 %30.05 in10.0 miNorth (360°)8.1 mphPartly Cloudy
6:56 PM73.9 °F66.0 °F76 %30.06 in10.0 miNNE (20°)4.6 mphClear
7:56 PM73.0 °F64.9 °F76 %30.09 in10.0 miCalmClear
8:56 PM71.1 °F61.0 °F70 %30.10 in10.0 miNNE (30°)4.6 mphClear
9:56 PM68.0 °F60.1 °F76 %30.10 in10.0 miENE (60°)3.5 mphClear
10:56 PM66.9 °F61.0 °F81 %30.10 in10.0 miCalmClear
11:56 PM66.0 °F57.0 °F73 %30.10 in10.0 miCalmClear
Hourly data recorded from PHBK, located miles away from Waieli, Hawaii







STORIES FROM OUR PARTNERS